Change the Weather History Date:

Saturday, November 13, 2010

  Actual Average Record
Temperature  
Mean Temperature 72 °F 73 °F  
Max Temperature 81 °F 80 °F 88 °F (1992)
Min Temperature 62 °F 66 °F 41 °F (1968)
Degree Days  
Heating Degree Days 0 0  
Month to date heating degree days 9 0  
Since 1 July heating degree days 9 1  
Cooling Degree Days 7 8  
Month to date cooling degree days 90 121  
Year to date cooling degree days 3858 3742  
Growing Degree Days 22 (Base 50)    
Moisture  
Dew Point 58 °F    
Average Humidity 63    
Maximum Humidity 84    
Minimum Humidity 42    
Precipitation  
Precipitation 0.00 in 0.18 in 2.62 in (1908)
Month to date precipitation 1.08 2.30  
Year to date precipitation 51.79 56.50  
Snow  
Snow 0.00 in - - ()
Month to date snowfall 0.0  
Since 1 July snowfall 0.0  
Since 1 September snowfall 0.0  
Snow Depth 0.00 in    
Sea Level Pressure  
Sea Level Pressure 30.07 in    
Wind  
Wind Speed 9 mph (NNW)    
Max Wind Speed 17 mph    
Max Gust Speed 22 mph    
Visibility 10 miles    
Events      
T = Trace of Precipitation, MM = Missing Value Source: NWS Daily Summary

Daily Weather History Graph

Daily Weather History Graph

Search for Another Location

Airport or City:

Trip Planner

Search our weather history database for the weather conditions in past years. The results will help you decide how hot, cold, wet, or windy it might be!

Date:

Astronomy

Nov. 13, 2010 Rise Set
Actual Time 6:38 AM EST 5:30 PM EST
Civil Twilight 6:13 AM EST 5:55 PM EST
Nautical Twilight 5:45 AM EST 6:23 PM EST
Astronomical Twilight 5:18 AM EST 6:50 PM EST
Moon 12:43 PM EST (11/13) No Moon Set
Length of Visible Light 11h 41m
Length of Day
10h 52m
Waxing Crescent, 50% of the Moon is Illuminated
Nov 13
Waxing Crescent
Nov 21
Full
Nov 28
Last Quarter
Dec 5
New
Dec 13
First Quarter

Hourly Weather History & Observations

Time (EST) Temp. Heat Index Dew Point Humidity Pressure Visibility Wind Dir Wind Speed Gust Speed Precip Events Conditions
12:53 AM 73.9 °F - 55.9 °F 53% 30.10 in 10.0 mi NE 12.7 mph - N/A   Mostly Cloudy
1:53 AM 73.9 °F - 55.0 °F 52% 30.09 in 10.0 mi NNE 6.9 mph - N/A   Mostly Cloudy
2:53 AM 64.0 °F - 57.9 °F 80% 30.08 in 10.0 mi NW 6.9 mph - N/A   Mostly Cloudy
3:53 AM 64.0 °F - 57.9 °F 80% 30.08 in 10.0 mi NW 9.2 mph - N/A   Mostly Cloudy
4:53 AM 63.0 °F - 57.9 °F 84% 30.09 in 10.0 mi NW 5.8 mph - N/A   Scattered Clouds
5:53 AM 63.0 °F - 57.9 °F 84% 30.09 in 10.0 mi NW 6.9 mph - N/A   Partly Cloudy
6:53 AM 63.0 °F - 57.9 °F 84% 30.09 in 10.0 mi NNW 8.1 mph - N/A   Mostly Cloudy
7:53 AM 68.0 °F - 57.9 °F 70% 30.10 in 10.0 mi NNW 9.2 mph - N/A   Mostly Cloudy
8:53 AM 70.0 °F - 57.9 °F 65% 30.11 in 10.0 mi NNW 10.4 mph - N/A   Mostly Cloudy
9:53 AM 73.0 °F - 59.0 °F 61% 30.11 in 10.0 mi NNW 9.2 mph - N/A   Mostly Cloudy
10:53 AM 73.9 °F - 57.9 °F 57% 30.10 in 10.0 mi NNW 8.1 mph - N/A   Mostly Cloudy
11:53 AM 79.0 °F - 57.0 °F 47% 30.07 in 10.0 mi North 12.7 mph - N/A   Mostly Cloudy
12:53 PM 79.0 °F - 55.9 °F 45% 30.05 in 10.0 mi NNE 12.7 mph 18.4 mph N/A   Mostly Cloudy
1:53 PM 80.1 °F 80.1 °F 55.0 °F 42% 30.03 in 10.0 mi North 11.5 mph - N/A   Scattered Clouds
2:53 PM 77.0 °F - 54.0 °F 45% 30.03 in 10.0 mi North 8.1 mph - N/A   Scattered Clouds
3:53 PM 79.0 °F - 55.0 °F 44% 30.01 in 10.0 mi North 10.4 mph - N/A   Scattered Clouds
4:53 PM 75.0 °F - 57.0 °F 53% 30.03 in 10.0 mi North 11.5 mph - N/A   Mostly Cloudy
5:53 PM 73.0 °F - 57.9 °F 59% 30.03 in 10.0 mi NNW 9.2 mph - N/A   Scattered Clouds
6:53 PM 71.1 °F - 61.0 °F 70% 30.04 in 10.0 mi NNW 8.1 mph - N/A   Partly Cloudy
7:53 PM 69.1 °F - 62.1 °F 78% 30.05 in 10.0 mi NNW 10.4 mph - N/A   Partly Cloudy
8:53 PM 69.1 °F - 62.1 °F 78% 30.06 in 10.0 mi NNW 9.2 mph - N/A   Mostly Cloudy
9:53 PM 68.0 °F - 62.1 °F 81% 30.06 in 10.0 mi NW 8.1 mph - N/A   Mostly Cloudy
10:53 PM 68.0 °F - 61.0 °F 78% 30.06 in 10.0 mi NNW 6.9 mph - N/A   Scattered Clouds
11:53 PM 68.0 °F - 62.1 °F 81% 30.05 in 10.0 mi NNW 8.1 mph - N/A   Mostly Cloudy